Wind_Speed
37 35 36 34 30 29 30 35 38 37 35 34 30 27 19 15 16 11 9 15 15 14 14 12 9 8 10 12 14 17 18 19 20 21 20 19 28 25 24 27 28 29 28
28 32 31 31 33 30 30 32 30 30 34 33 31 26 23 17 14 11 11 13 14 16 14 14 12 12 13 15 18 20 21 20 21 23 21 20 20 22 26 27 26 27 28
22 26 30 31 30 29 28 27 28 29 31 31 28 24 20 16 12 8 15 14 17 16 16 17 17 18 18 19 21 21 23 23 24 24 24 20 20 19 21 22 24 25 24
21 23 27 28 29 29 23 21 24 28 30 28 24 19 15 13 9 11 21 11 17 18 18 21 21 22 23 22 22 23 24 24 23 23 21 20 18 18 21 19 22 20 22
13 15 18 20 21 20 20 22 25 27 27 25 23 22 21 16 16 23 14 18 22 25 27 29 29 28 25 24 24 24 24 24 21 19 20 18 18 18 18 18 20 21 21
8 9 11 13 15 17 20 23 25 24 25 25 28 27 27 23 18 21 16 23 25 27 29 29 30 30 30 25 25 23 24 24 24 19 17 18 18 18 17 17 19 21 24
10 11 11 11 12 15 19 22 21 22 27 27 25 27 27 26 27 23 22 23 30 28 28 30 30 29 29 27 25 24 24 25 25 21 20 18 19 18 16 17 17 20 23
8 8 8 7 8 12 15 16 17 22 23 26 31 32 31 31 31 28 17 28 31 32 32 31 30 30 29 27 25 25 24 25 25 23 22 21 21 19 18 16 19 21 22
5 5 4 2 2 4 7 9 14 23 26 28 28 30 33 34 29 18 26 30 29 30 28 28 29 28 27 27 27 25 24 24 24 22 22 21 20 19 17 15 17 21 23
9 8 7 6 3 2 2 6 11 14 17 21 25 27 26 20 22 26 26 27 29 29 28 26 26 26 26 27 28 25 25 23 21 21 22 21 20 18 16 16 16 19 20
14 13 11 7 3 1 4 9 12 15 16 15 17 20 23 25 28 26 26 28 30 30 30 28 27 26 26 28 28 27 26 21 22 22 22 20 19 17 16 15 15 17 18
10 7 4 1 3 6 6 5 7 11 15 18 22 24 25 25 26 27 27 27 29 31 30 30 29 27 28 30 29 30 27 25 25 24 23 23 20 17 15 15 16 18 18
4 3 3 3 4 6 7 9 11 14 18 21 24 27 29 29 30 29 28 29 27 29 32 32 29 30 30 31 34 32 30 32 30 28 26 25 21 17 17 18 18 19 18
4 3 4 6 8 10 12 14 15 18 20 23 25 28 31 32 29 26 29 30 31 32 31 32 33 31 33 36 37 34 34 36 37 34 29 25 22 21 20 19 18 16 16
4 6 7 9 11 13 15 16 18 18 20 22 23 24 29 33 33 34 37 38 34 31 31 34 37 37 39 39 42 42 39 38 39 40 34 28 24 22 21 19 18 17 15
6 8 11 13 15 17 18 19 20 21 22 21 21 23 23 25 30 32 32 33 35 34 36 39 34 36 38 41 43 40 38 35 38 40 40 33 27 24 21 19 19 17 13
9 11 14 16 18 20 22 24 25 25 26 26 25 25 25 27 28 28 30 31 29 29 24 26 32 35 36 37 32 35 34 30 29 31 32 36 28 25 23 20 18 16 13
11 13 15 17 19 21 22 24 25 27 29 27 27 26 27 28 28 28 29 31 30 25 21 22 25 26 27 31 29 29 34 30 28 28 29 27 29 26 24 23 18 16 12
13 15 16 17 18 20 21 23 25 26 27 29 30 29 30 30 29 27 27 27 29 29 28 26 25 25 26 29 31 29 31 27 24 25 24 25 27 26 25 23 18 16 13
14 15 16 16 18 19 21 22 24 25 26 27 28 30 32 33 32 31 28 28 27 28 29 29 29 26 24 27 26 30 27 25 23 22 23 26 26 25 25 25 21 18 13
13 14 15 16 18 19 20 21 22 23 24 25 26 27 27 29 29 28 26 28 29 29 29 29 29 28 23 21 26 30 25 23 21 21 21 26 28 26 24 25 22 19 15
13 14 15 16 17 18 19 20 21 22 23 24 26 26 26 26 27 27 28 29 28 28 27 27 27 24 24 15 14 28 24 21 21 20 21 24 29 26 24 25 23 21 17
13 13 14 15 16 17 18 19 20 21 22 22 24 26 26 26 27 27 28 29 28 27 26 25 24 22 19 18 7 14 17 17 16 16 20 21 27 28 26 27 25 23 20
13 14 14 16 16 17 18 18 19 19 20 22 23 24 25 26 27 27 28 28 28 27 25 24 22 21 18 17 12 6 16 18 17 16 16 18 22 27 26 26 25 22 19
13 14 15 16 16 17 17 17 18 19 20 22 23 24 25 26 27 27 28 28 28 27 24 22 21 19 18 13 13 9 2 7 11 10 12 16 21 27 26 25 24 23 21
14 14 15 16 16 17 17 18 19 20 21 22 22 24 25 26 27 27 28 28 28 26 24 22 20 18 16 14 11 12 5 3 3 8 7 11 18 23 23 24 23 24 25
Wind_Direction
253 253 254 254 255 262 257 251 251 251 244 242 233 254 244 236 258 243 265 305 277 251 248 260 270 274 274 276 277 278 284 287 285 296 292 295 307 305 306 308 310 309 309
260 259 260 260 259 262 262 257 253 255 247 236 238 239 229 248 236 246 298 282 264 247 249 253 270 281 291 285 281 277 283 282 285 289 294 294 299 305 310 311 312 311 309
261 259 259 259 261 263 265 256 250 243 235 226 231 228 240 230 234 252 293 256 261 258 258 264 273 273 277 289 275 276 280 280 283 285 292 291 299 306 309 311 312 312 312
273 270 267 267 270 271 272 260 250 240 231 225 222 223 216 212 227 280 302 268 259 264 269 272 274 272 273 278 271 280 280 276 280 283 287 291 295 302 308 312 312 313 312
296 295 295 291 287 278 264 252 242 234 230 222 219 224 213 219 227 280 286 271 272 270 270 271 271 271 271 273 267 283 278 274 276 278 283 286 295 300 304 306 308 313 318
299 296 295 290 283 271 253 245 240 234 220 219 213 215 231 231 253 286 273 274 279 278 277 273 274 269 262 265 265 284 277 276 278 274 275 279 291 297 301 305 310 314 316
302 299 294 287 276 266 256 251 247 230 222 215 214 224 233 249 274 278 272 275 282 281 278 276 274 269 262 257 264 283 275 277 279 276 274 278 287 297 295 303 306 307 307
312 306 300 288 270 255 249 247 229 218 219 223 236 254 261 265 281 286 279 282 283 283 280 277 272 268 259 254 260 277 273 278 283 278 276 285 289 291 294 296 303 306 306
15 15 16 3 275 244 237 240 244 245 249 257 259 261 272 277 290 287 291 289 289 287 283 277 267 262 255 251 259 271 271 278 283 275 275 281 284 284 292 292 300 306 308
64 69 75 84 100 145 260 291 270 257 262 265 275 283 286 284 291 296 293 292 294 295 288 279 267 258 254 254 262 267 264 275 280 273 272 278 278 281 284 284 291 297 302
89 92 94 93 97 254 285 285 282 282 285 289 292 292 291 294 296 295 292 294 295 294 286 278 269 261 257 257 260 264 264 271 272 268 267 271 269 269 268 274 282 288 289
98 95 87 11 296 287 289 301 303 300 298 297 297 297 297 296 295 295 295 294 294 288 288 283 272 260 258 258 259 260 260 262 264 266 265 267 265 263 264 268 282 293 292
99 71 33 8 349 335 326 321 318 314 312 310 307 305 304 303 300 296 293 291 289 286 286 284 282 265 257 258 264 266 254 252 256 259 261 265 267 265 264 274 285 299 300
71 40 9 352 345 338 334 328 325 320 315 313 311 309 308 308 312 313 308 300 289 286 282 279 277 275 263 258 260 259 256 254 253 255 259 263 263 263 265 269 281 295 300
15 3 352 344 337 332 328 324 322 322 321 319 317 314 313 311 308 303 300 296 290 285 288 287 285 277 261 257 255 256 256 257 258 254 250 254 258 259 259 262 272 288 296
358 349 345 341 337 333 331 331 331 332 331 327 321 319 316 310 309 310 307 303 300 297 288 276 284 280 278 276 258 256 255 260 262 260 255 248 250 252 254 253 261 277 286
352 347 344 342 340 340 340 339 338 337 335 333 335 334 330 327 327 325 324 319 315 310 305 302 285 280 275 278 278 274 259 259 268 265 264 250 247 248 248 243 252 265 280
349 346 344 343 343 340 338 338 338 338 337 338 339 337 332 332 334 331 328 329 331 326 310 303 304 294 284 277 278 274 265 257 260 263 263 247 240 242 241 237 241 253 269
344 345 344 344 342 341 340 339 338 337 336 335 335 334 332 333 335 335 334 333 336 338 335 327 303 290 286 280 278 281 273 259 255 261 258 240 235 236 236 232 234 245 261
341 340 341 343 343 342 341 340 338 337 335 334 334 335 333 333 335 338 339 340 336 334 337 335 328 319 291 279 272 273 270 260 248 249 244 232 232 233 233 228 233 238 249
338 340 343 343 341 341 340 338 337 336 334 333 334 335 333 333 333 334 334 337 339 336 334 334 334 330 317 275 276 272 261 252 250 245 243 228 229 228 227 222 227 231 240
338 338 338 339 338 338 337 337 335 333 334 333 334 335 335 335 336 335 333 334 335 336 335 333 333 335 328 308 265 270 254 252 251 247 244 237 228 225 221 219 222 228 233
333 334 335 335 336 336 335 334 333 333 334 334 334 335 338 338 338 336 334 334 335 335 335 333 331 332 335 324 271 241 257 266 260 256 250 245 227 218 217 215 218 224 230
328 330 333 333 333 333 332 331 331 332 332 333 335 336 337 337 337 337 335 335 334 335 336 334 332 331 337 332 332 270 246 247 256 252 249 236 228 215 214 213 216 222 228
325 329 331 329 329 330 330 330 330 331 333 333 334 335 336 335 335 336 335 335 335 335 335 336 335 330 330 338 327 345 329 242 237 236 234 233 223 212 212 212 218 221 223
325 326 327 327 327 327 328 329 330 330 331 332 333 334 334 334 334 334 334 334 335 335 336 337 337 332 327 326 327 327 343 60 183 207 219 219 209 208 214 217 221 226 224
Height
1507 1511 1512 1514 1516 1517 1518 1520 1523 1526 1526 1529 1533 1535 1537 1537 1535 1538 1538 1538 1536 1536 1537 1538 1537 1536 1536 1535 1535 1533 1532 1530 1527 1525 1521 1518 1514 1510 1506 1502 1498 1492 1488
1504 1506 1507 1508 1510 1511 1511 1513 1515 1516 1519 1524 1527 1528 1528 1529 1533 1534 1534 1534 1533 1531 1531 1531 1532 1531 1530 1530 1529 1528 1526 1524 1522 1519 1517 1513 1509 1505 1500 1496 1492 1487 1482
1499 1500 1501 1502 1503 1505 1506 1507 1509 1512 1515 1519 1523 1525 1527 1526 1528 1528 1527 1527 1528 1528 1528 1527 1526 1525 1525 1524 1523 1521 1519 1517 1515 1512 1509 1507 1502 1499 1494 1491 1487 1482 1477
1494 1495 1496 1497 1498 1499 1501 1503 1506 1507 1512 1515 1520 1524 1524 1523 1524 1524 1523 1522 1522 1523 1522 1522 1520 1519 1518 1518 1516 1515 1513 1511 1509 1506 1503 1500 1498 1494 1489 1486 1482 1478 1472
1489 1490 1491 1492 1493 1494 1496 1499 1502 1505 1508 1512 1514 1515 1517 1516 1517 1518 1516 1517 1516 1516 1514 1513 1512 1511 1511 1510 1509 1508 1506 1504 1503 1501 1497 1495 1493 1490 1486 1482 1478 1473 1469
1485 1486 1486 1487 1489 1491 1494 1497 1500 1504 1506 1509 1506 1506 1507 1511 1514 1513 1512 1511 1510 1508 1506 1505 1504 1503 1502 1502 1502 1501 1500 1498 1496 1495 1492 1489 1487 1485 1481 1478 1474 1470 1465
1482 1482 1483 1484 1486 1489 1492 1495 1497 1500 1503 1502 1504 1504 1504 1506 1508 1506 1506 1505 1502 1500 1497 1496 1495 1494 1494 1494 1494 1493 1492 1491 1489 1488 1485 1483 1481 1478 1476 1473 1471 1467 1462
1480 1480 1481 1483 1485 1487 1489 1491 1494 1496 1499 1499 1500 1501 1503 1503 1503 1500 1499 1497 1494 1491 1489 1488 1486 1485 1485 1486 1486 1485 1484 1483 1481 1479 1478 1476 1474 1472 1470 1468 1465 1462 1457
1479 1480 1481 1482 1484 1486 1488 1491 1494 1496 1496 1498 1499 1499 1498 1497 1496 1495 1493 1489 1486 1483 1480 1478 1477 1476 1477 1478 1477 1477 1476 1475 1474 1472 1471 1469 1468 1466 1465 1463 1461 1458 1452
1480 1481 1483 1484 1486 1488 1491 1493 1494 1495 1496 1496 1495 1494 1492 1490 1490 1488 1486 1481 1477 1474 1472 1470 1469 1469 1470 1470 1469 1470 1468 1469 1467 1465 1464 1462 1461 1460 1459 1458 1457 1453 1450
1482 1484 1486 1488 1490 1491 1491 1492 1492 1492 1491 1490 1489 1489 1487 1485 1483 1481 1478 1474 1471 1467 1464 1462 1461 1462 1462 1462 1461 1461 1460 1462 1460 1459 1457 1456 1455 1454 1453 1452 1451 1448 1445
1485 1486 1487 1488 1489 1489 1489 1489 1488 1488 1487 1486 1483 1481 1480 1478 1476 1473 1470 1467 1464 1459 1456 1454 1453 1453 1453 1452 1452 1451 1453 1453 1452 1451 1450 1449 1448 1448 1447 1446 1444 1442 1438
1486 1487 1487 1487 1487 1487 1487 1486 1485 1484 1482 1480 1477 1474 1472 1470 1467 1466 1462 1458 1455 1451 1448 1446 1444 1444 1443 1442 1441 1441 1443 1442 1442 1442 1441 1441 1441 1441 1440 1439 1438 1435 1432
1486 1486 1486 1486 1486 1485 1484 1483 1482 1480 1478 1475 1472 1468 1463 1461 1458 1455 1451 1447 1444 1440 1437 1434 1433 1433 1432 1431 1430 1430 1430 1430 1431 1431 1432 1433 1434 1433 1433 1433 1432 1430 1427
1485 1485 1485 1484 1483 1483 1481 1480 1478 1476 1473 1469 1466 1463 1458 1453 1450 1446 1441 1436 1433 1430 1426 1422 1419 1418 1417 1416 1416 1417 1418 1420 1420 1421 1422 1424 1425 1426 1426 1426 1426 1425 1422
1484 1484 1482 1481 1479 1478 1476 1475 1473 1470 1467 1465 1462 1458 1453 1449 1443 1437 1432 1426 1421 1417 1413 1411 1408 1406 1405 1404 1401 1402 1405 1408 1409 1410 1411 1414 1416 1418 1419 1420 1420 1419 1418
1480 1480 1478 1477 1475 1473 1471 1468 1465 1462 1459 1457 1454 1450 1445 1441 1435 1430 1423 1418 1413 1409 1406 1401 1398 1396 1393 1393 1394 1393 1393 1396 1399 1400 1401 1403 1407 1409 1412 1413 1414 1414 1413
1477 1475 1474 1472 1471 1468 1466 1463 1459 1455 1451 1449 1446 1443 1438 1434 1429 1424 1418 1411 1405 1401 1398 1395 1391 1388 1386 1385 1384 1383 1384 1386 1388 1391 1392 1394 1398 1401 1403 1406 1408 1408 1408
1473 1471 1470 1468 1466 1464 1461 1458 1454 1451 1448 1444 1440 1437 1432 1427 1423 1419 1414 1408 1402 1396 1391 1387 1383 1380 1379 1377 1375 1375 1375 1375 1379 1381 1383 1386 1389 1392 1395 1399 1401 1402 1403
1470 1468 1466 1464 1462 1460 1457 1454 1451 1447 1444 1440 1436 1431 1425 1420 1415 1411 1408 1403 1398 1393 1387 1382 1376 1372 1369 1368 1367 1366 1367 1369 1370 1373 1375 1377 1381 1384 1388 1392 1395 1397 1397
1466 1464 1462 1460 1458 1456 1453 1450 1447 1444 1440 1436 1432 1428 1423 1417 1412 1407 1403 1398 1394 1388 1383 1377 1371 1365 1361 1358 1359 1357 1359 1362 1363 1365 1367 1369 1373 1376 1380 1385 1388 1391 1392
1462 1460 1458 1456 1454 1452 1449 1446 1443 1440 1436 1432 1428 1424 1419 1414 1409 1404 1399 1395 1390 1385 1380 1374 1368 1362 1358 1353 1350 1352 1353 1355 1356 1358 1360 1362 1365 1369 1374 1378 1382 1385 1387
1458 1457 1455 1452 1450 1447 1445 1442 1439 1436 1432 1428 1424 1419 1414 1410 1405 1400 1396 1390 1385 1381 1376 1370 1365 1359 1354 1351 1346 1346 1349 1350 1351 1352 1354 1355 1358 1362 1366 1371 1375 1379 1381
1455 1453 1450 1448 1445 1443 1440 1437 1434 1431 1428 1424 1419 1415 1410 1406 1401 1396 1392 1386 1381 1376 1372 1367 1362 1357 1352 1348 1344 1341 1342 1343 1345 1346 1347 1349 1351 1356 1361 1365 1369 1373 1376
1450 1448 1446 1443 1441 1438 1436 1433 1430 1427 1423 1419 1415 1410 1406 1402 1397 1392 1387 1382 1377 1372 1367 1363 1358 1354 1350 1346 1344 1340 1337 1337 1339 1340 1341 1343 1345 1350 1355 1359 1364 1367 1370
1445 1443 1441 1438 1436 1433 1430 1428 1425 1422 1418 1414 1410 1406 1401 1397 1393 1388 1383 1378 1373 1368 1364 1359 1355 1351 1348 1345 1341 1339 1337 1335 1335 1336 1337 1338 1340 1345 1350 1354 1358 1362 1365